[[{"header":{"parameterUnit":"m.s-1","parameterCategory":1,"la1":30.2991,"la2":30.254,"lo1":-89.0895,"lo2":-89.0444,"dy":0.0017,"dx":0.0017,"nx":28,"ny":28,"refTime":"2025-08-17T03:00:00:Z","depth":0,"parameterNumber":2,"parameterNumberName":"U-component_of_WINDS"},"data":[0,0,0,0,0,0,0,0,0,0,0,0,0,0,0,0,0,0,0,0,0,0,0,0,0,0,0,0,0,0,0,0,0,0,0,0,0,0,0,0,0,0,0,0,0,0,0,0,0,0,0,0,0,0,0,0,0,0,0.2103,0.2103,0,0.2078,0.2078,0.2077,0.2087,0.2088,0.2088,0.2089,0.2062,0.206,0.2059,0,0,0,0,0,0,0,0,0,0,0,0,0,0.2159,0.2157,0.2103,0.2103,0.2103,0.2078,0.2078,0.2077,0.2087,0.2088,0.2089,0.2089,0.2062,0.2061,0.2059,0,0,0,0,0,0,0,0,0,0,0,0,0,0.2134,0.2157,0.2103,0.2105,0.2104,0.2078,0.2078,0.2077,0.2087,0.2088,0.2089,0.209,0.2063,0.2061,0.2059,0.2029,0,0,0.2053,0.2052,0,0,0,0,0,0,0,0,0.2135,0.2132,0.2105,0.2104,0.2104,0.2087,0.2087,0.2061,0.2087,0.2094,0.2089,0.209,0.2069,0.2067,0.206,0.2028,0.2027,0.2053,0.2052,0.2051,0.205,0,0,0,0,0,0,0,0.2137,0.2133,0.2093,0.2104,0.2104,0.2106,0.2103,0.2082,0.2077,0.2093,0.2094,0.2091,0.2069,0.2062,0.2059,0.2026,0.2053,0.2051,0.205,0.2049,0.1968,0.1967,0,0,0,0,0,0,0.2139,0.2134,0.2094,0.2092,0.2122,0.2104,0.2101,0.2091,0.2077,0.2076,0.209,0.2091,0.2065,0.2062,0.2059,0.2022,0.2051,0.2049,0.2048,0.1969,0.1968,0.1967,0,0,0,0,0,0,0.214,0.2135,0.2095,0.2114,0.2109,0.2102,0.2091,0.209,0.2083,0.2075,0.2074,0.2084,0.2065,0.2061,0.2036,0.2022,0.2048,0.2046,0.1971,0.1969,0.1968,0.195,0,0,0,0,0,0,0.2142,0.2136,0.2125,0.2113,0.2108,0.2074,0.209,0.2089,0.208,0.2081,0.2068,0.2067,0.2066,0.2039,0.2035,0.2019,0.2045,0.1972,0.197,0.1968,0.1952,0.1948,0.1945,0,0,0,0,0,0.2144,0.2121,0.2124,0.2119,0.2094,0.2073,0.207,0.2069,0.2079,0.2067,0.2062,0.2067,0.2024,0.2037,0.2031,0.2016,0.1973,0.197,0.1968,0.1954,0.1949,0.1945,0,0,0,0,0,0,0.213,0.2119,0.2123,0.2095,0.2085,0.2075,0.206,0.2064,0.205,0.2052,0.2052,0.2049,0.2023,0.2017,0.2031,0.1986,0.2,0.1997,0.1991,0.1986,0.1983,0.1984,0.2043,0,0,0,0,0,0.2124,0.2108,0.2099,0.2076,0.2071,0.2066,0.2057,0.2058,0.2047,0.2042,0.2035,0.2024,0.2007,0.1997,0.1981,0.1952,0.1949,0.1938,0.1935,0.1932,0.1929,0.1912,0.1907,0.196,0.196,0.196,0,0,0.211,0.2103,0.2093,0.2073,0.2065,0.2048,0.2062,0.2044,0.2031,0.2039,0.2015,0.201,0.1997,0.1969,0.1957,0.1964,0.1914,0.1929,0.1927,0.1925,0.1909,0.1904,0.19,0.1958,0.1959,0.1959,0,0,0.2078,0.2071,0.205,0.2042,0.203,0.2027,0.2022,0.2011,0.2008,0.1984,0.1989,0.1974,0.1947,0.1937,0.1929,0.1893,0.1897,0.1888,0.187,0.1853,0.1849,0.1845,0.1831,0.1827,0.1885,0.1885,0.1885,0,0.2063,0.2038,0.2039,0.202,0.2011,0.2018,0.1997,0.1989,0.1972,0.1965,0.1974,0.1939,0.1931,0.1901,0.1892,0.1886,0.1879,0.1889,0.185,0.1846,0.1842,0.1829,0.1824,0.1884,0.1884,0.1884,0.1884,0,0.202,0.2003,0.1987,0.1971,0.1961,0.1941,0.1938,0.1928,0.1929,0.1926,0.1901,0.1892,0.1875,0.1868,0.1869,0.1838,0.1842,0.185,0.1864,0.1836,0.1824,0.1819,0.1883,0.1883,0.1883,0.1884,0,0,0.1976,0.1962,0.1956,0.1949,0.1936,0.1923,0.1903,0.1887,0.1877,0.1866,0.1848,0.1825,0.1832,0.1823,0.1823,0.1809,0.178,0.1818,0.1818,0.1811,0.1744,0.1737,0.1732,0.1783,0.1782,0.1782,0.1745,0,0.1942,0.1908,0.1908,0.1876,0.186,0.1867,0.185,0.184,0.1836,0.1821,0.1817,0.18,0.1811,0.1806,0.1792,0.1786,0.1766,0.1789,0.1766,0.1766,0.1768,0.1725,0.1718,0.1684,0.174,0.1739,0.1739,0,0.1897,0.1884,0.1851,0.184,0.1833,0.1818,0.1803,0.1789,0.1778,0.1776,0.1766,0.1769,0.1748,0.1764,0.1735,0.175,0.1741,0.1737,0.1736,0.1732,0.1749,0.172,0.1673,0.1667,0.1731,0.1732,0.1732,0,0.1867,0.1842,0.1819,0.1812,0.18,0.1789,0.1783,0.1773,0.1763,0.175,0.1743,0.1728,0.1719,0.1707,0.1705,0.1716,0.1676,0.1691,0.1673,0.1673,0.1663,0.1663,0.1612,0.1659,0.1659,0.1659,0.1659,0,0.1828,0.1807,0.1805,0.179,0.1767,0.1768,0.1744,0.174,0.1731,0.1715,0.172,0.1705,0.1704,0.1689,0.1687,0.1663,0.1659,0.1657,0.1656,0.1656,0.1656,0.1649,0.165,0.1658,0.1658,0.1658,0.1659,0,0.179,0.1789,0.1763,0.1754,0.1751,0.1734,0.1725,0.1711,0.1708,0.1688,0.1684,0.1679,0.1661,0.1658,0.1637,0.1636,0.1607,0.161,0.1611,0.1611,0.1592,0.1593,0.1534,0.1525,0.1579,0.1578,0.1578,0,0.1765,0.1749,0.1738,0.1728,0.1721,0.1705,0.1695,0.1696,0.1685,0.1671,0.1658,0.1641,0.1627,0.1598,0.1592,0.1576,0.1578,0.1558,0.1575,0.1575,0.1576,0.1576,0.1574,0.1554,0.1554,0.1553,0.1553,0,0.1719,0.1719,0.1705,0.169,0.1678,0.1666,0.1655,0.1646,0.1645,0.1633,0.1615,0.1604,0.1583,0.1565,0.1549,0.1543,0.1547,0.1548,0.1542,0.1541,0.1541,0.1539,0.16,0.1549,0.1549,0.1549,0.155,0.155,0.1686,0.1672,0.1662,0.1645,0.1637,0.1627,0.1613,0.1609,0.1594,0.1576,0.1578,0.1557,0.1547,0.1526,0.1518,0.1502,0.1508,0.1501,0.1499,0.1496,0.1494,0.1545,0.1499,0.1499,0.1499,0.15,0.15,0,0.164,0.1634,0.1619,0.1603,0.159,0.1597,0.1585,0.1573,0.1555,0.1545,0.1532,0.151,0.1493,0.1487,0.147,0.1458,0.146,0.1454,0.1454,0.1452,0.149,0.1496,0.1453,0.1453,0.1453,0.1453,0.1453,0.1453,0.1614,0.159,0.1589,0.1561,0.1555,0.1535,0.1528,0.1518,0.151,0.1486,0.1472,0.1468,0.1459,0.1442,0.1426,0.1425,0.1418,0.1411,0.141,0.1445,0.145,0.1454,0.1459,0.1409,0.1409,0.1373,0.1373,0.1372]},{"header":{"parameterUnit":"m.s-1","parameterCategory":1,"la1":30.2991,"la2":30.254,"lo1":-89.0895,"lo2":-89.0444,"dy":0.0017,"dx":0.0017,"nx":28,"ny":28,"refTime":"2025-08-17T03:00:00:Z","depth":0,"parameterNumber":3,"parameterNumberName":"V-component_of_WINDS"},"data":[0,0,0,0,0,0,0,0,0,0,0,0,0,0,0,0,0,0,0,0,0,0,0,0,0,0,0,0,0,0,0,0,0,0,0,0,0,0,0,0,0,0,0,0,0,0,0,0,0,0,0,0,0,0,0,0,0,0,-3.0987,-3.0989,0,-3.1104,-3.1105,-3.1107,-3.11,-3.1098,-3.1097,-3.1095,-3.121,-3.1215,-3.1219,0,0,0,0,0,0,0,0,0,0,0,0,0,-3.0756,-3.076,-3.0987,-3.0989,-3.099,-3.1104,-3.1105,-3.1107,-3.11,-3.1098,-3.1096,-3.1094,-3.1209,-3.1214,-3.122,0,0,0,0,0,0,0,0,0,0,0,0,0,-3.0863,-3.0761,-3.0987,-3.1001,-3.1003,-3.1103,-3.1105,-3.1107,-3.1101,-3.1098,-3.1096,-3.1093,-3.1207,-3.1214,-3.1221,-3.1314,0,0,-3.1242,-3.1245,0,0,0,0,0,0,0,0,-3.0857,-3.0871,-3.0997,-3.1,-3.1003,-3.1085,-3.1066,-3.1176,-3.1101,-3.1063,-3.1095,-3.1092,-3.117,-3.118,-3.1207,-3.1319,-3.1324,-3.1242,-3.1247,-3.125,-3.1252,0,0,0,0,0,0,0,-3.0849,-3.0866,-3.1033,-3.0999,-3.1002,-3.1,-3.1012,-3.1087,-3.1129,-3.1067,-3.1066,-3.108,-3.1171,-3.1201,-3.121,-3.1326,-3.1242,-3.1248,-3.1253,-3.1255,-3.152,-3.1523,0,0,0,0,0,0,-3.0839,-3.086,-3.103,-3.1037,-3.0922,-3.1006,-3.102,-3.1061,-3.1129,-3.1137,-3.1083,-3.108,-3.119,-3.1202,-3.1214,-3.1328,-3.125,-3.1256,-3.126,-3.1517,-3.1521,-3.1524,0,0,0,0,0,0,-3.0834,-3.0854,-3.1025,-3.0948,-3.097,-3.1013,-3.1059,-3.1065,-3.1094,-3.1141,-3.1148,-3.1105,-3.1189,-3.1204,-3.1289,-3.1332,-3.1259,-3.1266,-3.1514,-3.1518,-3.1522,-3.1557,0,0,0,0,0,0,-3.0828,-3.0853,-3.0889,-3.0949,-3.0974,-3.1099,-3.1062,-3.1069,-3.1107,-3.1104,-3.1164,-3.1171,-3.1188,-3.1279,-3.1296,-3.134,-3.1271,-3.151,-3.1516,-3.1521,-3.1552,-3.1562,-3.157,0,0,0,0,0,-3.0819,-3.0893,-3.0891,-3.0912,-3.1021,-3.1102,-3.1116,-3.1135,-3.111,-3.1147,-3.1177,-3.1169,-3.1325,-3.1288,-3.1307,-3.1354,-3.1508,-3.1514,-3.1521,-3.1548,-3.156,-3.157,0,0,0,0,0,0,-3.0836,-3.0901,-3.09,-3.0996,-3.1044,-3.1101,-3.1148,-3.1147,-3.1201,-3.1197,-3.1216,-3.123,-3.1316,-3.1343,-3.1301,-3.1448,-3.1413,-3.1423,-3.1427,-3.1438,-3.1447,-3.1439,-3.1277,0,0,0,0,0,-3.0851,-3.0912,-3.0966,-3.1045,-3.1069,-3.1104,-3.114,-3.1151,-3.1201,-3.122,-3.1257,-3.1304,-3.1364,-3.1402,-3.146,-3.1556,-3.1569,-3.1597,-3.1606,-3.1613,-3.1622,-3.1675,-3.1689,-3.1545,-3.1545,-3.1545,0,0,-3.0882,-3.0925,-3.0963,-3.105,-3.1088,-3.115,-3.1121,-3.1188,-3.1235,-3.123,-3.1313,-3.1342,-3.1396,-3.1487,-3.1529,-3.1513,-3.1665,-3.1622,-3.1627,-3.1632,-3.1683,-3.1697,-3.1709,-3.1549,-3.1549,-3.1548,0,0,-3.0971,-3.101,-3.1081,-3.112,-3.1179,-3.1202,-3.1219,-3.1277,-3.1296,-3.138,-3.1378,-3.1432,-3.1535,-3.1574,-3.1607,-3.1711,-3.1706,-3.1729,-3.1776,-3.1827,-3.1839,-3.1849,-3.1886,-3.19,-3.1738,-3.1738,-3.1738,0,-3.1002,-3.1097,-3.1117,-3.1185,-3.1223,-3.1223,-3.1295,-3.1331,-3.1405,-3.1431,-3.1412,-3.1541,-3.1577,-3.1678,-3.1704,-3.173,-3.175,-3.1722,-3.1836,-3.1846,-3.1856,-3.1892,-3.1906,-3.174,-3.174,-3.174,-3.1739,0,-3.1132,-3.1198,-3.1248,-3.1321,-3.1365,-3.1434,-3.1464,-3.1505,-3.1512,-3.1537,-3.1622,-3.1666,-3.1733,-3.1757,-3.1763,-3.1859,-3.1847,-3.1832,-3.1797,-3.1872,-3.1906,-3.192,-3.1744,-3.1743,-3.1742,-3.1741,0,0,-3.1235,-3.1319,-3.1337,-3.137,-3.1435,-3.1486,-3.1555,-3.1622,-3.1657,-3.1708,-3.1766,-3.1853,-3.184,-3.1877,-3.1888,-3.1933,-3.2014,-3.1913,-3.1914,-3.193,-3.2121,-3.2133,-3.2148,-3.2011,-3.2013,-3.2015,-3.2117,0,-3.133,-3.1455,-3.1475,-3.1583,-3.1644,-3.1645,-3.1705,-3.1751,-3.1776,-3.1831,-3.1858,-3.1919,-3.1897,-3.192,-3.1964,-3.1994,-3.2052,-3.1987,-3.2064,-3.2067,-3.2051,-3.2166,-3.2178,-3.2272,-3.213,-3.2133,-3.2134,0,-3.1459,-3.1515,-3.163,-3.1688,-3.1714,-3.1768,-3.1831,-3.1883,-3.1935,-3.195,-3.1993,-3.1998,-3.2069,-3.2031,-3.2129,-3.2084,-3.2117,-3.2136,-3.214,-3.2148,-3.2105,-3.2178,-3.2302,-3.2317,-3.2155,-3.2154,-3.2152,0,-3.1523,-3.1627,-3.1709,-3.1738,-3.1807,-3.1845,-3.1875,-3.1925,-3.1963,-3.2018,-3.2043,-3.2104,-3.2138,-3.2185,-3.2207,-3.2177,-3.2303,-3.2267,-3.2317,-3.2317,-3.2344,-3.2342,-3.2476,-3.2364,-3.2364,-3.2364,-3.2363,0,-3.1628,-3.1698,-3.1739,-3.179,-3.1869,-3.189,-3.1967,-3.1996,-3.2041,-3.2096,-3.21,-3.2152,-3.2178,-3.2234,-3.2251,-3.2329,-3.2344,-3.2358,-3.2362,-3.2358,-3.2356,-3.238,-3.2374,-3.2367,-3.2367,-3.2366,-3.2365,0,-3.1713,-3.1743,-3.1833,-3.1891,-3.1908,-3.1963,-3.2013,-3.2061,-3.2086,-3.2157,-3.2174,-3.2213,-3.2279,-3.2305,-3.2385,-3.2397,-3.2487,-3.2485,-3.247,-3.2471,-3.252,-3.2516,-3.2674,-3.2697,-3.257,-3.2571,-3.2572,0,-3.1778,-3.1833,-3.1897,-3.1936,-3.1968,-3.2029,-3.2069,-3.2093,-3.2134,-3.2198,-3.2239,-3.2305,-3.2359,-3.2464,-3.2498,-3.2559,-3.256,-3.2611,-3.2569,-3.2564,-3.2561,-3.2558,-3.2563,-3.2619,-3.262,-3.2621,-3.2622,0,-3.1891,-3.1904,-3.1962,-3.2026,-3.2074,-3.2125,-3.2175,-3.2206,-3.2237,-3.2283,-3.2351,-3.2393,-3.2476,-3.2541,-3.2605,-3.2634,-3.2634,-3.2635,-3.265,-3.2647,-3.2636,-3.2643,-3.2492,-3.2631,-3.263,-3.263,-3.2629,-3.2629,-3.1969,-3.2018,-3.2071,-3.2136,-3.2176,-3.2223,-3.2272,-3.2303,-3.2361,-3.2431,-3.2441,-3.2514,-3.2564,-3.265,-3.2682,-3.2739,-3.2725,-3.2747,-3.2752,-3.2758,-3.2761,-3.2627,-3.275,-3.275,-3.275,-3.275,-3.2749,0,-3.2083,-3.2118,-3.2177,-3.2247,-3.2298,-3.2294,-3.2349,-3.2392,-3.2457,-3.2504,-3.2558,-3.2636,-3.27,-3.274,-3.2803,-3.2841,-3.2842,-3.2857,-3.2855,-3.2862,-3.2769,-3.275,-3.2855,-3.2855,-3.2855,-3.2855,-3.2855,-3.2855,-3.2148,-3.2231,-3.2249,-3.2352,-3.2385,-3.2458,-3.249,-3.2533,-3.2571,-3.2659,-3.2712,-3.2738,-3.2783,-3.285,-3.2908,-3.2918,-3.2941,-3.2957,-3.2966,-3.2879,-3.2868,-3.2858,-3.284,-3.2962,-3.2962,-3.3054,-3.3055,-3.3056]}]]